LES 8 9/SOL 11A B DEB *, 13753

Orbit data source: Space-Track

LES 8 9/SOL 11A B DEB *, 13753 is space debris in GEO originally from a launch on Mon, 15 Mar 1976 UTC launched from the Air Force Eastern Test Range (AFETR). Debris objects in space refer to the collection of defunct objects orbiting the Earth. Examples of debris include non-operational satellites, rocket bodies, and fragments generated from explosions, collisions, or faulty payload assembly.

Not visible in the next 10 days
Identifier
13753, 1976-023K
Orbit
GEO
Last TLE update
16 hours ago
Origin
Manufacturer
Unknown
Mission
LES 9 operational debris"
Bus & Motor
Unknown
Mass
Unknown
Launch date (UTC)
1976-03-15 (49 years ago)
Launch vehicle
Unknown
Launch site
Air Force Eastern Test Range (AFETR)
Object type
Payload
Rocket body
Debris
Shape & HBR
Unknown
Radar Cross Section
Large (>1 m²)

Expand to show TLE details & history

TLE from 16 hours ago
0 LES 8 9/SOL 11A B DEB *
1 13753U 76023K   25183.89878497 -.00000286  00000-0  00000-0 0  9993
2 13753   5.6915 284.6399 0002245  45.5550  20.2109  1.01344351118977
Epoch: 2025-07-02T21:34Z
TLE epoch observation values (Epoch: 2025-07-02T21:34:15.021Z)
Latitude
5.19046°
Longitude
105.57127°
Altitude
35,478.764 km
Speed
3.086 km/s
True Right ascension
23h 21m 13s
True Declination
5° 11' 07"
Sunlit
Object was in daylight at epoch
Visualization orbit readout
Latitude
-4.47523°
Longitude
-11.56235°
Altitude
35,490.006 km
Speed
3.086 km/s
Apparent Right ascension
15h 19m 12s
Apparent Declination
-9° 04' 38"
Sunlit
Object is in daylight
Visualization observer readout
Local Sidereal Time
01:18:50
Azimuth
310.791° NW
Elevation
-49.16°
Doppler factor
1
Orbital elements
Apogee altitude
35,499.032 km
Perigee altitude
35,480.234 km
Semi-major axis
41,867.77 km
Eccentricity
0.00022
Inclination
5.6915°
RAAN
284.6399°
Arg. of periapsis
45.555°
True anomaly
Unknown
Mean anomaly
20.2109°
Eccentric anomaly
Unknown
Mean motion
0.25335 °/min
Orbital period
1,420.95 mins
BSTAR
0
Loading historical data...
13753 neighbors
Loading maneuver chart data...
Loading SW <> Apogee altitude chart data...
Loading historical data...
Loading historical data...
Loading historical data...
Loading historical data...
Loading historical data...
Loading historical data...
Loading historical data...

LES 8 9/SOL 11A B DEB * Visibility

Observer location: undefined°, undefined°

LES 8 9/SOL 11A B DEB * is likely not visible in the next few days
Span
Click to sort rows by Start time (UTC) header in descending order
Start Az.
Max El. time (UTC)
Max El. Az.
Max El.
End time (UTC)
End Az.
|